Regional Weather Roundup
Issued by NWS

Home | Current Version | Previous Version | Text Only | Print | Product List | Glossary Off
Versions: 1 2 3 4 5 6 7 8 9 10 11 12 13 14 15 16 17 18 19 20 21 22 23 24 25 26 27 28 29 30 31 32 33 34 35 36 37 38 39 40 41 42 43 44 45 46 47 48 49 50

000
ASUS43 KFSD 261102
RWRSD

WEATHER ROUNDUP FOR SOUTH DAKOTA
NATIONAL WEATHER SERVICE SIOUX FALLS SD
600 AM CDT TUE MAY 26 2015

NOTE: "FAIR" INDICATES FEW OR NO CLOUDS BELOW 12,000 FEET WITH NO
SIGNIFICANT WEATHER AND/OR OBSTRUCTIONS TO VISIBILITY.


SDZ001>005-009-010-012>017-261200-
NORTHWEST AND NORTH CENTRAL SOUTH DAKOTA

CITY           SKY/WX    TMP DP  RH WIND       PRES   REMARKS
FAITH            N/A     50  47  89 NW3       29.92R
MOBRIDGE       PTCLDY    53  53 100 N8        29.90R
$$

SDZ012>016-024>037-041>051-057-063-072>074-261200-
SOUTHWEST AND SOUTH CENTRAL SOUTH DAKOTA

CITY           SKY/WX    TMP DP  RH WIND       PRES   REMARKS
RAPID CTY ARPT CLOUDY    50  49  96 NE3       29.96S
PIERRE         PTCLDY    50  50 100 N9        29.90R
CUSTER         FOG       45  43  93 CALM      30.00S VSB 1/4
ELLSWORTH AFB  CLOUDY    50  50 100 E2        29.96  FOG
PHILIP         MOCLDY    48  47  96 W5        29.94R
PINE RIDGE     CLOUDY    52  49  89 NE5       29.96R
WINNER         PTSUNNY   52  49  89 NW8       29.90R
$$

SDZ004>011-016>023-039-040-261200-
NORTHEAST SOUTH DAKOTA

CITY           SKY/WX    TMP DP  RH WIND       PRES   REMARKS
ABERDEEN       PTCLDY    47  45  93 SE6       29.89S
WATERTOWN      CLOUDY    50  47  89 N8        29.86S
BROOKINGS      CLOUDY    54  48  82 N12       29.85S
$$

SDZ017-020-022-023-036>040-048>070-261200-
SOUTHEAST SOUTH DAKOTA

CITY           SKY/WX    TMP DP  RH WIND       PRES   REMARKS
SIOUX FALLS    CLOUDY    54  52  93 NE7       29.81S
HURON          CLOUDY    54  49  83 N9        29.87R
CHAMBERLAIN    MOCLDY    53  49  86 N7        29.88S
MITCHELL       CLOUDY    54  51  90 N14       29.86R
YANKTON        CLOUDY    55  54  94 NW13      29.79S
$$

ABBREVIATIONS USED IN REMARKS
   TC - TEMPERATURE IN CELSIUS
  WCI - WIND CHILL INDEX
   HX - HEAT INDEX
  VSB - VISIBILITY




USA.gov is the U.S. government's official web portal to all federal, state and local government web resources and services.